Time,TemperatureF,DewpointF,PressureIn,WindDirection,WindDirectionDegrees,WindSpeedMPH,WindSpeedGustMPH,Humidity,HourlyPrecipIn,Conditions,Clouds,dailyrainin,SoftwareType,DateUTC
2013-05-21 21:25:00,71.5,69.1,29.97,ESE,111,1.0,2.0,92,0.00,,,0.07,Wunderground v.1.15,2013-05-22 01:25:00,
2013-05-21 21:30:00,71.5,69.1,29.97,South,186,1.0,2.0,92,0.00,,,0.07,Wunderground v.1.15,2013-05-22 01:30:00,
2013-05-21 21:35:00,71.5,69.4,29.97,SE,133,2.0,2.0,93,0.00,,,0.07,Wunderground v.1.15,2013-05-22 01:35:00,
2013-05-21 21:40:00,71.4,69.3,29.97,South,184,2.0,2.0,93,0.00,,,0.07,Wunderground v.1.15,2013-05-22 01:40:00,
2013-05-21 21:45:00,71.4,69.3,29.97,SSE,150,1.0,1.0,93,0.00,,,0.07,Wunderground v.1.15,2013-05-22 01:45:00,
2013-05-21 21:55:00,71.3,69.2,29.98,South,169,1.0,1.0,93,0.00,,,0.07,Wunderground v.1.15,2013-05-22 01:55:00,
2013-05-21 22:05:00,71.2,69.1,29.98,South,169,0.0,1.0,93,0.00,,,0.07,Wunderground v.1.15,2013-05-22 02:05:00,
2013-05-21 22:10:00,71.2,69.1,29.98,East,101,0.0,2.0,93,0.00,,,0.07,Wunderground v.1.15,2013-05-22 02:10:00,
2013-05-21 22:15:00,71.2,69.1,29.98,SE,146,1.0,2.0,93,0.00,,,0.07,Wunderground v.1.15,2013-05-22 02:15:00,
2013-05-21 22:25:00,71.1,69.0,29.98,SE,146,0.0,1.0,93,0.00,,,0.07,Wunderground v.1.15,2013-05-22 02:25:00,
2013-05-21 22:35:00,71.0,68.9,29.98,SSE,147,1.0,1.0,93,0.00,,,0.07,Wunderground v.1.15,2013-05-22 02:35:00,
2013-05-21 22:45:00,71.0,68.9,29.98,SE,142,0.0,0.0,93,0.00,,,0.07,Wunderground v.1.15,2013-05-22 02:45:00,
2013-05-21 22:55:00,71.0,68.9,29.98,SE,132,1.0,1.0,93,0.00,,,0.07,Wunderground v.1.15,2013-05-22 02:55:00,
2013-05-21 23:00:00,71.0,68.9,29.98,SSE,149,1.0,3.0,93,0.00,,,0.07,Wunderground v.1.15,2013-05-22 03:00:00,
2013-05-21 23:10:00,71.2,69.1,29.97,ESE,111,1.0,2.0,93,0.00,,,0.07,Wunderground v.1.15,2013-05-22 03:10:00,
2013-05-21 23:20:00,71.4,69.3,29.97,SSE,149,2.0,2.0,93,0.00,,,0.07,Wunderground v.1.15,2013-05-22 03:20:00,
2013-05-21 23:30:00,71.5,69.4,29.97,ESE,111,1.0,3.0,93,0.00,,,0.07,Wunderground v.1.15,2013-05-22 03:30:00,
2013-05-21 23:35:00,71.6,69.2,29.97,South,182,1.0,4.0,92,0.00,,,0.07,Wunderground v.1.15,2013-05-22 03:35:00,
2013-05-21 23:45:00,71.7,69.3,29.98,ESE,117,1.0,2.0,92,0.00,,,0.07,Wunderground v.1.15,2013-05-22 03:45:00,
2013-05-21 23:55:00,71.7,69.6,29.99,SW,234,1.0,1.0,93,0.00,,,0.07,Wunderground v.1.15,2013-05-22 03:55:00,